Location: *
(58.4167°N, 22.5000°E)
Time: 22:24:28
(UTC+00:00)

Nadezhda 1 Rocket - Pass Details

Date: 22 September 2019
Orbit: 942 x 1005 km, 83.0° (Epoch: 14 October)

Event Time Altitude Azimuth Distance (km) Brightness Sun altitude
Rises 17:41:05 0° 193° (SSW) 3,598 6.9 -9.9°
Reaches altitude 10° 17:43:34 10° 195° (SSW) 2,658 6.3 -10.2°
Maximum altitude 17:49:39 82° 283° (WNW) 964 4.1 -11.0°
Drops below altitude 10° 17:55:49 10° 12° (NNE) 2,697 6.4 -11.8°
Sets 17:58:21 0° 13° (NNE) 3,655 7.1 -12.1°
